• în România
  • Lista ţărilor
  • Pe 7 zile
  • Temperatura apei
  • Hartă satelitară
  • Meteo pe hartă
  • Widget-uri
  • user-avatar
    Intrare

    Meteo pe oră la Minsk

    Astăzi, 21 Octombrie, Sâmbătă

    Timp Temperatura Precipitaţii Vânt Presiune Umiditate
    00:00 +5°C° 0 mm 2 m/s 746 mmHg 74%
    01:00 +5°C° 0 mm 2 m/s 746 mmHg 75%
    02:00 +5°C° 0 mm 2 m/s 746 mmHg 75%
    03:00 +5°C° 0 mm 2 m/s 746 mmHg 75%
    04:00 +5°C° 0 mm 2 m/s 746 mmHg 76%
    05:00 +5°C° 0 mm 2 m/s 745 mmHg 77%
    06:00 +5°C° 0,2 mm 2 m/s 745 mmHg 78%
    07:00 +5°C° 0,2 mm 2 m/s 745 mmHg 80%
    08:00 +4°C° 0,2 mm 3 m/s 745 mmHg 81%
    09:00 +4°C° 0,6 mm 3 m/s 745 mmHg 82%
    10:00 +4°C° 0,6 mm 3 m/s 745 mmHg 83%
    11:00 +4°C° 0,6 mm 3 m/s 745 mmHg 84%
    12:00 +4°C° 0,9 mm 3 m/s 744 mmHg 85%
    13:00 +4°C° 0,9 mm 3 m/s 744 mmHg 86%
    14:00 +4°C° 0,9 mm 3 m/s 744 mmHg 87%
    15:00 +4°C° 0,8 mm 3 m/s 744 mmHg 87%
    16:00 +3°C° 0,8 mm 3 m/s 744 mmHg 88%
    17:00 +3°C° 0,8 mm 3 m/s 744 mmHg 89%
    18:00 +3°C° 0,1 mm 3 m/s 744 mmHg 89%
    19:00 +2°C° 0,1 mm 3 m/s 744 mmHg 90%
    20:00 +3°C° 0,1 mm 2 m/s 744 mmHg 91%
    21:00 +2°C° 0 mm 2 m/s 744 mmHg 91%
    22:00 +2°C° 0 mm 2 m/s 745 mmHg 92%
    23:00 +1°C° 0 mm 2 m/s 745 mmHg 92%

    Mâine, 22 Octombrie, Duminică

    Timp Temperatura Precipitaţii Vânt Presiune Umiditate
    00:00 +1°C° 0 mm 2 m/s 745 mmHg 93%
    01:00 +1°C° 0 mm 2 m/s 745 mmHg 93%
    02:00 +1°C° 0 mm 2 m/s 745 mmHg 94%
    03:00 -1°C° 0 mm 2 m/s 745 mmHg 94%
    04:00 -1°C° 0 mm 2 m/s 746 mmHg 94%
    05:00 -1°C° 0 mm 2 m/s 746 mmHg 95%
    06:00 -1°C° 0 mm 2 m/s 746 mmHg 94%
    07:00 -1°C° 0 mm 2 m/s 746 mmHg 93%
    08:00 -1°C° 0 mm 2 m/s 746 mmHg 93%
    09:00 +1°C° 0 mm 2 m/s 746 mmHg 86%
    10:00 +3°C° 0 mm 2 m/s 746 mmHg 80%
    11:00 +4°C° 0 mm 2 m/s 746 mmHg 73%
    12:00 +6°C° 0 mm 1 m/s 746 mmHg 70%
    13:00 +6°C° 0 mm 1 m/s 746 mmHg 66%
    14:00 +7°C° 0 mm 1 m/s 746 mmHg 62%
    15:00 +5°C° 0 mm 1 m/s 745 mmHg 67%
    16:00 +4°C° 0 mm 1 m/s 745 mmHg 71%
    17:00 +3°C° 0 mm 1 m/s 745 mmHg 76%
    18:00 +3°C° 0 mm 1 m/s 745 mmHg 79%
    19:00 +2°C° 0 mm 1 m/s 745 mmHg 81%
    20:00 +2°C° 0 mm 1 m/s 745 mmHg 83%
    21:00 +2°C° 0 mm 1 m/s 745 mmHg 84%
    22:00 +1°C° 0 mm 1 m/s 745 mmHg 85%
    23:00 -1°C° 0 mm 2 m/s 745 mmHg 86%

    Poimâine, 23 Octombrie, Luni

    Timp Temperatura Precipitaţii Vânt Presiune Umiditate
    00:00 -1°C° 0 mm 2 m/s 746 mmHg 87%
    01:00 +1°C° 0 mm 1 m/s 746 mmHg 88%
    02:00 +1°C° 0 mm 1 m/s 746 mmHg 89%
    03:00 +1°C° 0 mm 1 m/s 745 mmHg 89%
    04:00 +1°C° 0 mm 1 m/s 745 mmHg 89%
    05:00 -1°C° 0 mm 2 m/s 745 mmHg 89%
    06:00 -1°C° 0 mm 2 m/s 745 mmHg 88%
    07:00 -1°C° 0 mm 2 m/s 745 mmHg 88%
    08:00 -1°C° 0 mm 2 m/s 745 mmHg 87%
    09:00 +1°C° 0 mm 3 m/s 745 mmHg 81%
    10:00 +2°C° 0 mm 3 m/s 746 mmHg 76%
    11:00 +3°C° 0 mm 3 m/s 746 mmHg 70%
    12:00 +4°C° 0 mm 3 m/s 746 mmHg 68%
    13:00 +4°C° 0 mm 3 m/s 746 mmHg 66%
    14:00 +5°C° 0 mm 3 m/s 746 mmHg 64%
    15:00 +3°C° 0 mm 3 m/s 746 mmHg 69%
    16:00 +2°C° 0 mm 3 m/s 746 mmHg 74%
    17:00 +1°C° 0 mm 3 m/s 746 mmHg 79%
    18:00 +1°C° 0 mm 3 m/s 747 mmHg 80%
    19:00 0°C° 0 mm 3 m/s 747 mmHg 81%
    20:00 0°C° 0 mm 3 m/s 747 mmHg 82%
    21:00 -1°C° 0 mm 3 m/s 748 mmHg 82%
    22:00 -1°C° 0 mm 3 m/s 748 mmHg 82%
    23:00 -1°C° 0 mm 3 m/s 749 mmHg 82%

    24 Octombrie, Marţi

    Timp Temperatura Precipitaţii Vânt Presiune Umiditate
    00:00 -2°C° 0 mm 3 m/s 749 mmHg 82%
    01:00 -2°C° 0 mm 3 m/s 749 mmHg 82%
    02:00 -2°C° 0 mm 3 m/s 750 mmHg 83%
    03:00 -2°C° 0 mm 3 m/s 750 mmHg 82%
    04:00 -2°C° 0 mm 3 m/s 750 mmHg 82%
    05:00 -2°C° 0 mm 3 m/s 751 mmHg 81%
    06:00 -2°C° 0 mm 3 m/s 751 mmHg 80%
    07:00 -2°C° 0 mm 3 m/s 751 mmHg 78%
    08:00 -3°C° 0 mm 4 m/s 752 mmHg 77%
    09:00 -1°C° 0 mm 4 m/s 752 mmHg 72%
    10:00 0°C° 0 mm 4 m/s 752 mmHg 67%
    11:00 +1°C° 0 mm 4 m/s 753 mmHg 62%
    12:00 +1°C° 0 mm 4 m/s 753 mmHg 61%
    13:00 +1°C° 0 mm 4 m/s 753 mmHg 60%
    14:00 +3°C° 0 mm 4 m/s 753 mmHg 59%
    15:00 +2°C° 0 mm 3 m/s 753 mmHg 63%
    16:00 +1°C° 0 mm 3 m/s 754 mmHg 67%
    17:00 +2°C° 0 mm 2 m/s 754 mmHg 70%
    18:00 0°C° 0 mm 3 m/s 754 mmHg 71%
    19:00 0°C° 0 mm 3 m/s 754 mmHg 72%
    20:00 0°C° 0 mm 3 m/s 755 mmHg 73%
    21:00 0°C° 0 mm 3 m/s 755 mmHg 73%
    22:00 -1°C° 0 mm 3 m/s 755 mmHg 73%
    23:00 -1°C° 0 mm 2 m/s 755 mmHg 73%

    25 Octombrie, Miercuri

    Timp Temperatura Precipitaţii Vânt Presiune Umiditate
    00:00 -1°C° 0 mm 2 m/s 755 mmHg 73%
    01:00 -1°C° 0 mm 2 m/s 755 mmHg 73%
    02:00 -1°C° 0 mm 2 m/s 755 mmHg 73%
    03:00 -2°C° 0 mm 2 m/s 756 mmHg 74%
    04:00 -2°C° 0 mm 2 m/s 756 mmHg 75%
    05:00 -2°C° 0 mm 2 m/s 756 mmHg 75%
    06:00 -2°C° 0 mm 2 m/s 756 mmHg 74%
    07:00 -2°C° 0 mm 2 m/s 756 mmHg 73%
    08:00 -2°C° 0 mm 2 m/s 756 mmHg 71%
    09:00 0°C° 0 mm 3 m/s 756 mmHg 66%
    10:00 +1°C° 0 mm 3 m/s 756 mmHg 61%
    11:00 +2°C° 0 mm 3 m/s 757 mmHg 56%
    12:00 +2°C° 0 mm 3 m/s 756 mmHg 54%
    13:00 +2°C° 0 mm 3 m/s 756 mmHg 53%
    14:00 +3°C° 0 mm 3 m/s 756 mmHg 52%
    15:00 +2°C° 0 mm 3 m/s 756 mmHg 57%
    16:00 +1°C° 0 mm 2 m/s 756 mmHg 62%
    17:00 -1°C° 0 mm 2 m/s 756 mmHg 68%
    18:00 -1°C° 0 mm 2 m/s 756 mmHg 70%
    19:00 -2°C° 0 mm 2 m/s 756 mmHg 72%
    20:00 -2°C° 0 mm 2 m/s 756 mmHg 75%
    21:00 -3°C° 0 mm 2 m/s 756 mmHg 76%
    22:00 -3°C° 0 mm 2 m/s 756 mmHg 77%
    23:00 -3°C° 0 mm 2 m/s 756 mmHg 78%

    26 Octombrie, Joi

    Timp Temperatura Precipitaţii Vânt Presiune Umiditate
    00:00 -3°C° 0 mm 2 m/s 756 mmHg 79%
    01:00 -3°C° 0 mm 2 m/s 756 mmHg 80%
    02:00 -1°C° 0 mm 1 m/s 756 mmHg 80%
    03:00 -1°C° 0 mm 1 m/s 755 mmHg 80%
    04:00 -3°C° 0 mm 2 m/s 755 mmHg 80%
    05:00 -3°C° 0 mm 2 m/s 755 mmHg 79%
    06:00 -3°C° 0 mm 2 m/s 755 mmHg 78%
    07:00 -3°C° 0 mm 2 m/s 754 mmHg 76%
    08:00 -1°C° 0 mm 1 m/s 754 mmHg 74%
    09:00 -1°C° 0 mm 2 m/s 754 mmHg 68%
    10:00 +1°C° 0 mm 2 m/s 754 mmHg 61%
    11:00 +2°C° 0 mm 2 m/s 753 mmHg 54%
    12:00 +3°C° 0 mm 2 m/s 753 mmHg 52%
    13:00 +3°C° 0 mm 2 m/s 752 mmHg 49%
    14:00 +5°C° 0 mm 1 m/s 752 mmHg 47%
    15:00 +4°C° 0 mm 1 m/s 752 mmHg 52%
    16:00 +3°C° 0 mm 1 m/s 751 mmHg 57%
    17:00 +1°C° 0 mm 1 m/s 751 mmHg 62%
    18:00 +1°C° 0 mm 1 m/s 751 mmHg 64%
    19:00 +1°C° 0 mm 1 m/s 751 mmHg 67%
    20:00 0°C° 0 mm 1 m/s 751 mmHg 69%
    21:00 0°C° 0 mm 1 m/s 751 mmHg 71%
    22:00 0°C° 0 mm 1 m/s 751 mmHg 73%
    23:00 -1°C° 0 mm 1 m/s 751 mmHg 74%
    Arată mai mult